Simultaneous Nadir Overpasses (SNOs) Predictions

Prediction of SNOs between GOES-14 and NPP Satellite Orbit:

Table of predicted SNOs for the next 14.0 days since TLE Epoch: 11/1/2019
Index Date Time (GOES-14) GOES-14 Lat,Lon NPP Lat,Lon Distance(km) Time Diff (sec)
1 11/02/2019 08:05:20 0.17,-104.22 -0.66,-100.48 425.13 80
2 11/03/2019 20:27:16 -0.14,-104.11 -0.50,-105.80 191.46 80
3 11/04/2019 20:11:10 -0.15,-104.12 0.49,-101.26 325.86 80
4 11/06/2019 08:32:59 0.12,-104.24 0.62,-106.54 262.48 80
5 11/07/2019 08:11:33 0.14,-104.23 -0.37,-102.01 253.28 80
6 11/08/2019 20:33:29 -0.11,-104.10 -0.84,-107.31 366.01 80
7 11/09/2019 20:17:23 -0.12,-104.11 0.15,-102.77 151.61 80
8 11/11/2019 08:39:11 0.09,-104.26 0.96,-108.06 433.35 80
9 11/12/2019 08:17:46 0.11,-104.25 -0.03,-103.52 82.53 80
10 11/14/2019 20:20:57 -0.10,-104.09 -0.12,-104.30 22.71 80




NCC Satellite Simultaneous Nadir Overpasses (SNOs) Prediction Service
